| time (UTC) | temp C | wind direction | speed KPH | gust KPH | rain 1hr cm | rain 24hr cm | rain mn cm | humidity % | barometer mb |
| 20260504130548 | 32 | 264 | 4.8 | 4.8 | 0.00 | 0.00 | 0.00 | 71 | 1003.0 |
| 20260504110548 | 36 | 310 | 0.0 | 0.0 | 0.00 | 0.00 | 0.00 | 55 | 1003.0 |
| 20260504100547 | 37 | 251 | 0.0 | 0.0 | 0.00 | 0.00 | 0.00 | 54 | 1003.0 |
| 20260504081547 | 37 | 312 | 3.2 | 3.2 | 0.00 | 0.00 | 0.00 | 55 | 1004.0 |
| 20260504081049 | 37 | 268 | 4.8 | 8.0 | 0.00 | 0.00 | 0.00 | 53 | 1005.0 |
| 20260504080546 | 38 | 300 | 0.0 | 0.0 | 0.00 | 0.00 | 0.00 | 52 | 1005.0 |
| 20260504050546 | 35 | 318 | 0.0 | 1.6 | 0.00 | 0.00 | 0.00 | 55 | 1007.0 |
| 20260504045547 | 33 | 315 | 0.0 | 0.0 | 0.00 | 0.00 | 0.00 | 57 | 1008.0 |
| 20260504045046 | 33 | 312 | 0.0 | 0.0 | 0.00 | 0.00 | 0.00 | 57 | 1008.0 |
| 20260504044547 | 33 | 309 | 0.0 | 0.0 | 0.00 | 0.00 | 0.00 | 56 | 1007.0 |
| 20260504044046 | 33 | 310 | 1.6 | 1.6 | 0.00 | 0.00 | 0.00 | 57 | 1008.0 |
| 20260504043547 | 33 | 302 | 1.6 | 1.6 | 0.00 | 0.00 | 0.00 | 58 | 1007.0 |
| 20260504043047 | 33 | 313 | 1.6 | 3.2 | 0.00 | 0.00 | 0.00 | 58 | 1008.0 |
| 20260504042548 | 32 | 302 | 4.8 | 8.0 | 0.00 | 0.00 | 0.00 | 58 | 1008.0 |
| 20260504042048 | 32 | 310 | 0.0 | 0.0 | 0.00 | 0.00 | 0.00 | 58 | 1008.0 |
| 20260504041547 | 32 | 310 | 0.0 | 0.0 | 0.00 | 0.00 | 0.00 | 58 | 1008.0 |
| 20260504041046 | 32 | 313 | 1.6 | 1.6 | 0.00 | 0.00 | 0.00 | 59 | 1008.0 |
| 20260504040547 | 32 | 306 | 1.6 | 3.2 | 0.00 | 0.00 | 0.00 | 57 | 1008.0 |
| 20260504040047 | 32 | 313 | 1.6 | 3.2 | 0.00 | 0.00 | 0.00 | 61 | 1007.0 |
| 20260504035546 | 32 | 313 | 1.6 | 1.6 | 0.00 | 0.00 | 0.00 | 60 | 1007.0 |
| 20260504035047 | 32 | 311 | 4.8 | 8.0 | 0.00 | 0.00 | 0.00 | 60 | 1007.0 |
| 20260504034547 | 32 | 308 | 3.2 | 4.8 | 0.00 | 0.00 | 0.00 | 60 | 1007.0 |
| 20260504034047 | 32 | 311 | 0.0 | 0.0 | 0.00 | 0.00 | 0.00 | 63 | 1008.0 |
| 20260504033547 | 31 | 313 | 1.6 | 3.2 | 0.00 | 0.00 | 0.00 | 62 | 1007.0 |
| 20260504033046 | 31 | 311 | 3.2 | 4.8 | 0.00 | 0.00 | 0.00 | 63 | 1007.0 |
| 20260504032547 | 31 | 309 | 0.0 | 1.6 | 0.00 | 0.00 | 0.00 | 64 | 1008.0 |
| 20260504032046 | 31 | 313 | 1.6 | 3.2 | 0.00 | 0.00 | 0.00 | 65 | 1007.0 |
| 20260504031547 | 30 | 308 | 3.2 | 4.8 | 0.00 | 0.00 | 0.00 | 65 | 1007.0 |
| 20260504031048 | 30 | 307 | 0.0 | 0.0 | 0.00 | 0.00 | 0.00 | 67 | 1007.0 |
| 20260504030546 | 30 | 311 | 0.0 | 1.6 | 0.00 | 0.00 | 0.00 | 66 | 1007.0 |
| 20260504030046 | 30 | 308 | 0.0 | 0.0 | 0.00 | 0.00 | 0.00 | 66 | 1007.0 |
| 20260504025546 | 31 | 310 | 1.6 | 1.6 | 0.00 | 0.00 | 0.00 | 65 | 1007.0 |
| 20260504025046 | 30 | 311 | 0.0 | 0.0 | 0.00 | 0.00 | 0.00 | 67 | 1007.0 |
| 20260504024547 | 30 | 308 | 3.2 | 4.8 | 0.00 | 0.00 | 0.00 | 66 | 1007.0 |
| 20260504024048 | 30 | 309 | 1.6 | 1.6 | 0.00 | 0.00 | 0.00 | 67 | 1007.0 |
| 20260504023547 | 30 | 313 | 0.0 | 0.0 | 0.00 | 0.00 | 0.00 | 69 | 1007.0 |
| 20260504023046 | 30 | 311 | 0.0 | 0.0 | 0.00 | 0.00 | 0.00 | 70 | 1007.0 |
| 20260504022546 | 29 | 315 | 0.0 | 1.6 | 0.00 | 0.00 | 0.00 | 71 | 1007.0 |
| 20260504022046 | 29 | 311 | 1.6 | 1.6 | 0.00 | 0.00 | 0.00 | 71 | 1007.0 |
| 20260504021546 | 29 | 309 | 0.0 | 1.6 | 0.00 | 0.00 | 0.00 | 71 | 1007.0 |
| 20260504021047 | 29 | 309 | 0.0 | 0.0 | 0.00 | 0.00 | 0.00 | 72 | 1007.0 |
| 20260504020546 | 28 | 309 | 0.0 | 0.0 | 0.00 | 0.00 | 0.00 | 73 | 1007.0 |
| 20260504020046 | 27 | 310 | 0.0 | 0.0 | 0.00 | 0.00 | 0.00 | 75 | 1007.0 |
| 20260504015546 | 27 | 309 | 0.0 | 0.0 | 0.00 | 0.00 | 0.00 | 76 | 1006.0 |
| 20260504015046 | 27 | 309 | 0.0 | 0.0 | 0.00 | 0.00 | 0.00 | 76 | 1006.0 |
| 20260504014546 | 27 | 310 | 0.0 | 0.0 | 0.00 | 0.00 | 0.00 | 78 | 1006.0 |
| 20260504014048 | 27 | 310 | 0.0 | 0.0 | 0.00 | 0.00 | 0.00 | 79 | 1006.0 |
| 20260504013546 | 26 | 310 | 0.0 | 0.0 | 0.00 | 0.00 | 0.00 | 79 | 1006.0 |
| 20260504013047 | 26 | 310 | 0.0 | 0.0 | 0.00 | 0.00 | 0.00 | 79 | 1006.0 |
| 20260504012547 | 26 | 310 | 0.0 | 0.0 | 0.00 | 0.00 | 0.00 | 79 | 1006.0 |
| 20260504012046 | 26 | 310 | 0.0 | 0.0 | 0.00 | 0.00 | 0.00 | 79 | 1006.0 |
| 20260504011546 | 26 | 311 | 0.0 | 0.0 | 0.00 | 0.00 | 0.00 | 80 | 1006.0 |
| 20260504011046 | 26 | 311 | 0.0 | 0.0 | 0.00 | 0.00 | 0.00 | 81 | 1006.0 |
| 20260504010547 | 26 | 311 | 0.0 | 0.0 | 0.00 | 0.00 | 0.00 | 80 | 1006.0 |
| 20260504010047 | 26 | 310 | 0.0 | 0.0 | 0.00 | 0.00 | 0.00 | 81 | 1005.0 |
| 20260504005547 | 26 | 310 | 0.0 | 0.0 | 0.00 | 0.00 | 0.00 | 80 | 1005.0 |
| 20260504005047 | 26 | 310 | 0.0 | 0.0 | 0.00 | 0.00 | 0.00 | 80 | 1005.0 |
| 20260504004546 | 26 | 310 | 0.0 | 0.0 | 0.00 | 0.00 | 0.00 | 80 | 1005.0 |
| 20260504004046 | 26 | 310 | 0.0 | 0.0 | 0.00 | 0.00 | 0.00 | 79 | 1005.0 |
| 20260504003547 | 26 | 310 | 0.0 | 0.0 | 0.00 | 0.00 | 0.00 | 79 | 1005.0 |
| 20260504003046 | 26 | 310 | 0.0 | 0.0 | 0.00 | 0.00 | 0.00 | 78 | 1005.0 |
| 20260504002546 | 26 | 310 | 0.0 | 0.0 | 0.00 | 0.00 | 0.00 | 77 | 1005.0 |
| 20260504002047 | 26 | 310 | 0.0 | 0.0 | 0.00 | 0.00 | 0.00 | 77 | 1005.0 |
| 20260504001546 | 26 | 310 | 0.0 | 0.0 | 0.00 | 0.00 | 0.00 | 76 | 1005.0 |
| 20260504001046 | 26 | 310 | 0.0 | 0.0 | 0.00 | 0.00 | 0.00 | 76 | 1005.0 |
| 20260504000546 | 26 | 310 | 0.0 | 0.0 | 0.00 | 0.00 | 0.00 | 75 | 1005.0 |
| 20260504000047 | 26 | 310 | 0.0 | 0.0 | 0.00 | 0.00 | 0.00 | 75 | 1005.0 |
| 20260503235547 | 26 | 309 | 0.0 | 0.0 | 0.00 | 0.00 | 0.00 | 76 | 1005.0 |
| 20260503235046 | 26 | 310 | 0.0 | 0.0 | 0.00 | 0.00 | 0.00 | 76 | 1005.0 |
| 20260503234546 | 26 | 310 | 0.0 | 0.0 | 0.00 | 0.00 | 0.00 | 76 | 1005.0 |
| 20260503234046 | 26 | 310 | 0.0 | 0.0 | 0.00 | 0.00 | 0.00 | 77 | 1005.0 |
| 20260503233546 | 26 | 311 | 0.0 | 0.0 | 0.00 | 0.00 | 0.00 | 77 | 1005.0 |
| 20260503233048 | 26 | 311 | 0.0 | 0.0 | 0.00 | 0.00 | 0.00 | 76 | 1005.0 |
| 20260503232547 | 26 | 311 | 0.0 | 0.0 | 0.00 | 0.00 | 0.00 | 76 | 1005.0 |
| 20260503232046 | 26 | 311 | 0.0 | 0.0 | 0.00 | 0.00 | 0.00 | 75 | 1004.0 |
| 20260503231547 | 26 | 311 | 0.0 | 0.0 | 0.00 | 0.00 | 0.00 | 75 | 1005.0 |
| 20260503231046 | 26 | 311 | 0.0 | 0.0 | 0.00 | 0.00 | 0.00 | 75 | 1005.0 |
| 20260503230546 | 26 | 310 | 0.0 | 0.0 | 0.00 | 0.00 | 0.00 | 74 | 1005.0 |
| 20260503230046 | 26 | 310 | 0.0 | 0.0 | 0.00 | 0.00 | 0.00 | 73 | 1004.0 |
| 20260503225547 | 27 | 310 | 0.0 | 0.0 | 0.00 | 0.00 | 0.00 | 73 | 1004.0 |
| 20260503225048 | 27 | 310 | 0.0 | 0.0 | 0.00 | 0.00 | 0.00 | 73 | 1004.0 |
| 20260503224546 | 27 | 310 | 0.0 | 0.0 | 0.00 | 0.00 | 0.00 | 72 | 1004.0 |
| 20260503224046 | 27 | 310 | 0.0 | 0.0 | 0.00 | 0.00 | 0.00 | 72 | 1004.0 |
| 20260503223546 | 27 | 309 | 0.0 | 0.0 | 0.00 | 0.00 | 0.00 | 72 | 1004.0 |
| 20260503223048 | 27 | 309 | 0.0 | 0.0 | 0.00 | 0.00 | 0.00 | 73 | 1004.0 |
| 20260503222546 | 26 | 309 | 0.0 | 0.0 | 0.00 | 0.00 | 0.00 | 73 | 1004.0 |
| 20260503222046 | 26 | 309 | 0.0 | 0.0 | 0.00 | 0.00 | 0.00 | 76 | 1004.0 |
| 20260503221547 | 26 | 310 | 0.0 | 0.0 | 0.00 | 0.00 | 0.00 | 79 | 1004.0 |
| 20260503221047 | 26 | 311 | 0.0 | 0.0 | 0.00 | 0.00 | 0.00 | 80 | 1004.0 |
| 20260503220546 | 26 | 311 | 0.0 | 1.6 | 0.00 | 0.00 | 0.00 | 80 | 1004.0 |
| 20260503220046 | 27 | 311 | 1.6 | 3.2 | 0.00 | 0.00 | 0.00 | 81 | 1004.0 |
| 20260503215546 | 27 | 310 | 0.0 | 0.0 | 0.00 | 0.00 | 0.00 | 81 | 1004.0 |
| 20260503215046 | 27 | 310 | 0.0 | 1.6 | 0.00 | 0.00 | 0.00 | 81 | 1004.0 |
| 20260503214547 | 27 | 311 | 0.0 | 1.6 | 0.00 | 0.00 | 0.00 | 82 | 1004.0 |
| 20260503214046 | 28 | 310 | 0.0 | 0.0 | 0.00 | 0.00 | 0.00 | 84 | 1004.0 |
| 20260503213546 | 28 | 310 | 0.0 | 0.0 | 0.00 | 0.00 | 0.00 | 85 | 1004.0 |
| 20260503213046 | 28 | 310 | 0.0 | 1.6 | 0.00 | 0.00 | 0.00 | 85 | 1004.0 |
| 20260503212547 | 28 | 310 | 0.0 | 0.0 | 0.00 | 0.00 | 0.00 | 85 | 1004.0 |
| 20260503212046 | 28 | 309 | 0.0 | 0.0 | 0.00 | 0.00 | 0.00 | 85 | 1004.0 |
| 20260503211546 | 28 | 308 | 0.0 | 0.0 | 0.00 | 0.00 | 0.00 | 85 | 1004.0 |
| 20260503211046 | 28 | 304 | 0.0 | 0.0 | 0.00 | 0.00 | 0.00 | 85 | 1005.0 |
| 20260503210547 | 28 | 309 | 0.0 | 0.0 | 0.00 | 0.00 | 0.00 | 85 | 1004.0 |
| 20260503210048 | 28 | 308 | 0.0 | 0.0 | 0.00 | 0.00 | 0.00 | 85 | 1005.0 |
| 20260503205548 | 28 | 308 | 0.0 | 0.0 | 0.00 | 0.00 | 0.00 | 85 | 1004.0 |
| 20260503205046 | 28 | 309 | 0.0 | 0.0 | 0.00 | 0.00 | 0.00 | 85 | 1005.0 |
| 20260503204547 | 28 | 310 | 0.0 | 0.0 | 0.00 | 0.00 | 0.00 | 85 | 1005.0 |
| 20260503204047 | 28 | 310 | 0.0 | 0.0 | 0.00 | 0.00 | 0.00 | 85 | 1005.0 |
| 20260503203546 | 28 | 308 | 0.0 | 0.0 | 0.00 | 0.00 | 0.00 | 85 | 1005.0 |
| 20260503203046 | 28 | 306 | 1.6 | 1.6 | 0.00 | 0.00 | 0.00 | 85 | 1005.0 |
| 20260503202546 | 28 | 307 | 0.0 | 0.0 | 0.00 | 0.00 | 0.00 | 85 | 1005.0 |
| 20260503202046 | 28 | 308 | 0.0 | 1.6 | 0.00 | 0.00 | 0.00 | 85 | 1006.0 |
| 20260503201546 | 28 | 309 | 0.0 | 0.0 | 0.00 | 0.00 | 0.00 | 85 | 1006.0 |
| 20260503201047 | 28 | 303 | 1.6 | 1.6 | 0.00 | 0.00 | 0.00 | 85 | 1006.0 |
| 20260503200547 | 28 | 307 | 0.0 | 0.0 | 0.00 | 0.00 | 0.00 | 85 | 1006.0 |
| 20260503200047 | 28 | 307 | 0.0 | 0.0 | 0.00 | 0.00 | 0.00 | 85 | 1006.0 |
| 20260503195546 | 28 | 308 | 0.0 | 0.0 | 0.00 | 0.00 | 0.00 | 85 | 1006.0 |
| 20260503195046 | 28 | 309 | 0.0 | 0.0 | 0.00 | 0.00 | 0.00 | 84 | 1006.0 |
| 20260503194546 | 28 | 305 | 1.6 | 1.6 | 0.00 | 0.00 | 0.00 | 84 | 1006.0 |
| 20260503194046 | 28 | 305 | 0.0 | 1.6 | 0.00 | 0.00 | 0.00 | 84 | 1006.0 |
| 20260503193547 | 28 | 309 | 0.0 | 0.0 | 0.00 | 0.00 | 0.00 | 84 | 1006.0 |
| 20260503193047 | 29 | 307 | 1.6 | 1.6 | 0.00 | 0.00 | 0.00 | 84 | 1006.0 |
| 20260503192546 | 29 | 309 | 0.0 | 0.0 | 0.00 | 0.00 | 0.00 | 84 | 1006.0 |
| 20260503192046 | 29 | 309 | 0.0 | 0.0 | 0.00 | 0.00 | 0.00 | 84 | 1007.0 |
| 20260503191546 | 29 | 309 | 0.0 | 0.0 | 0.00 | 0.00 | 0.00 | 84 | 1007.0 |
| 20260503191046 | 29 | 310 | 0.0 | 0.0 | 0.00 | 0.00 | 0.00 | 84 | 1007.0 |
| 20260503190547 | 29 | 310 | 0.0 | 0.0 | 0.00 | 0.00 | 0.00 | 84 | 1007.0 |
| 20260503190048 | 29 | 308 | 0.0 | 0.0 | 0.00 | 0.00 | 0.00 | 85 | 1007.0 |
| 20260503185546 | 29 | 310 | 0.0 | 0.0 | 0.00 | 0.00 | 0.00 | 85 | 1007.0 |
| 20260503185047 | 30 | 309 | 0.0 | 0.0 | 0.00 | 0.00 | 0.00 | 85 | 1007.0 |
| 20260503184546 | 30 | 310 | 0.0 | 0.0 | 0.00 | 0.00 | 0.00 | 84 | 1007.0 |
| 20260503184046 | 30 | 310 | 0.0 | 0.0 | 0.00 | 0.00 | 0.00 | 84 | 1007.0 |
| 20260503183546 | 29 | 309 | 0.0 | 0.0 | 0.00 | 0.00 | 0.00 | 84 | 1007.0 |
| 20260503183047 | 29 | 309 | 0.0 | 0.0 | 0.00 | 0.00 | 0.00 | 85 | 1007.0 |
| 20260503182547 | 29 | 309 | 0.0 | 0.0 | 0.00 | 0.00 | 0.00 | 85 | 1007.0 |
| 20260503182046 | 29 | 310 | 0.0 | 0.0 | 0.00 | 0.00 | 0.00 | 85 | 1007.0 |
| 20260503181547 | 29 | 310 | 0.0 | 0.0 | 0.00 | 0.00 | 0.00 | 85 | 1008.0 |
| 20260503181047 | 29 | 310 | 0.0 | 0.0 | 0.00 | 0.00 | 0.00 | 85 | 1007.0 |
| 20260503180547 | 29 | 310 | 0.0 | 0.0 | 0.00 | 0.00 | 0.00 | 85 | 1007.0 |
| 20260503180047 | 29 | 310 | 0.0 | 0.0 | 0.00 | 0.00 | 0.00 | 84 | 1007.0 |
| 20260503175546 | 29 | 310 | 0.0 | 0.0 | 0.00 | 0.00 | 0.00 | 84 | 1008.0 |
| 20260503175046 | 29 | 310 | 0.0 | 0.0 | 0.00 | 0.00 | 0.00 | 84 | 1008.0 |
| 20260503174546 | 30 | 310 | 0.0 | 0.0 | 0.00 | 0.00 | 0.00 | 84 | 1007.0 |
| 20260503174047 | 30 | 310 | 0.0 | 0.0 | 0.00 | 0.00 | 0.00 | 84 | 1007.0 |
| 20260503173546 | 30 | 310 | 0.0 | 0.0 | 0.00 | 0.00 | 0.00 | 83 | 1007.0 |
| 20260503173046 | 30 | 310 | 0.0 | 0.0 | 0.00 | 0.00 | 0.00 | 83 | 1007.0 |
| 20260503172546 | 30 | 310 | 0.0 | 0.0 | 0.00 | 0.00 | 0.00 | 83 | 1007.0 |
| 20260503172048 | 30 | 310 | 0.0 | 0.0 | 0.00 | 0.00 | 0.00 | 83 | 1007.0 |
| 20260503171108 | 30 | 309 | 0.0 | 1.6 | 0.00 | 0.00 | 0.00 | 82 | 1007.0 |
| 20260503170547 | 30 | 310 | 0.0 | 0.0 | 0.00 | 0.00 | 0.00 | 82 | 1007.0 |
| 20260503150546 | 30 | 283 | 6.4 | 8.0 | 0.00 | 0.00 | 0.00 | 81 | 1005.0 |